Weather History for Saranac Lake, NY

Change the Weather History Date:

Saturday, January 4, 2014

  Actual Average Record
Temperature  
Mean Temperature 0 °F 14 °F  
Max Temperature 23 °F 25 °F 57 °F (1950)
Min Temperature -24 °F 3 °F -32 °F (1981)
Degree Days  
Heating Degree Days 65 51  
Month to date heating degree days 279 204  
Since 1 July heating degree days 4117 3903  
Moisture  
Dew Point -5 °F    
Average Humidity 69    
Maximum Humidity 90    
Minimum Humidity 48    
Precipitation  
Precipitation 0.00 in 0.07 in 0.85 in (1976)
Month to date precipitation 0.05 0.30  
Year to date precipitation 0.05 0.30  
Sea Level Pressure  
Sea Level Pressure 30.18 in    
Wind  
Wind Speed 11 mph (SW)    
Max Wind Speed 24 mph    
Max Gust Speed 28 mph    
Visibility 10 miles    
Events      
T = Trace of Precipitation, MM = Missing Value Source: NWS Daily Summary

Daily Weather History Graph

Daily Weather History Graph

Search for Another Location

Airport:

Trip Planner

Search our weather history database for the weather conditions in past years. The results will help you decide how hot, cold, wet, or windy it might be!

Date:

Astronomy

Jan. 04, 2014 Rise Set
Actual Time 7:32 AM EST 4:31 PM EST
Civil Twilight 6:59 AM EST 5:04 PM EST
Nautical Twilight 6:23 AM EST 5:40 PM EST
Astronomical Twilight 5:48 AM EST 6:15 PM EST
Moon 9:27 AM EST (1/4) 8:58 PM EST (1/4)
Length of Visible Light 10h 04m
Length of Day
8h 58m
Waxing Crescent, 15% of the Moon is Illuminated
Jan 4
Waxing Crescent
Jan 7
First Quarter
Jan 15
Full
Jan 24
Last Quarter
Jan 30
New

Hourly Weather History & Observations

Time (EST) Temp. Windchill Dew Point Humidity Pressure Visibility Wind Dir Wind Speed Gust Speed Precip Events Conditions
12:47 AM -22.0 °F - -27.4 °F 76% 30.20 in 10.0 mi Calm Calm - N/A   Scattered Clouds
12:51 AM -22.0 °F - -27.9 °F 74% 30.38 in 10.0 mi Calm Calm - N/A   Mostly Cloudy
12:58 AM -22.0 °F - -27.4 °F 76% 30.21 in 10.0 mi Calm Calm - N/A   Mostly Cloudy
1:21 AM -20.2 °F - -23.8 °F 83% 30.20 in 10.0 mi Calm Calm - N/A   Overcast
1:51 AM -17.0 °F -27.2 °F -20.0 °F 86% 30.36 in 10.0 mi SSW 3.5 mph - N/A   Overcast
2:51 AM -16.1 °F - -20.9 °F 79% 30.35 in 10.0 mi Calm Calm - N/A   Partly Cloudy
3:51 AM -9.9 °F - -14.1 °F 82% 30.31 in 10.0 mi Calm Calm - N/A   Mostly Cloudy
4:51 AM -5.1 °F - -9.0 °F 83% 30.30 in 10.0 mi Calm Calm - N/A   Mostly Cloudy
5:51 AM -7.1 °F - -9.9 °F 87% 30.31 in 10.0 mi Calm Calm - N/A   Mostly Cloudy
6:51 AM 3.0 °F -13.3 °F -8.0 °F 60% 30.28 in 10.0 mi SW 11.5 mph - N/A   Mostly Cloudy
7:51 AM 3.0 °F -10.5 °F -7.1 °F 63% 30.28 in 10.0 mi SW 8.1 mph - N/A   Scattered Clouds
8:51 AM 10.0 °F -7.1 °F -6.0 °F 48% 30.26 in 10.0 mi SW 16.1 mph 24.2 mph N/A   Mostly Cloudy
9:51 AM 12.0 °F -4.0 °F -4.0 °F 49% 30.25 in 10.0 mi SW 15.0 mph 21.9 mph N/A   Partly Cloudy
10:51 AM 14.0 °F -3.4 °F -0.9 °F 52% 30.19 in 10.0 mi SSW 19.6 mph - N/A   Clear
11:51 AM 17.1 °F 0.1 °F 1.0 °F 50% 30.13 in 10.0 mi SW 20.7 mph 25.3 mph N/A   Clear
12:51 PM 19.9 °F 5.7 °F 3.0 °F 48% 30.09 in 10.0 mi SSW 16.1 mph 24.2 mph N/A   Clear
1:51 PM 21.0 °F 5.7 °F 6.1 °F 53% 30.06 in 10.0 mi SSW 19.6 mph - N/A   Clear
2:51 PM 21.9 °F 9.2 °F 6.1 °F 51% 30.06 in 10.0 mi SW 13.8 mph - N/A   Partly Cloudy
3:51 PM 23.0 °F 10.6 °F 6.1 °F 48% 30.06 in 10.0 mi SW 13.8 mph - 0.01 in   Overcast
4:51 PM 23.0 °F 10.1 °F 6.1 °F 48% 30.04 in 10.0 mi SW 15.0 mph 23.0 mph N/A   Overcast
5:51 PM 23.0 °F 11.1 °F 6.1 °F 48% 30.06 in 10.0 mi SW 12.7 mph - N/A   Overcast
6:51 PM 21.9 °F 9.8 °F 7.0 °F 53% 30.06 in 10.0 mi SW 12.7 mph - N/A   Mostly Cloudy
7:51 PM 21.9 °F 7.8 °F 8.1 °F 55% 30.08 in 10.0 mi SSW 17.3 mph - N/A   Mostly Cloudy
8:51 PM 21.9 °F 8.7 °F 7.0 °F 53% 30.06 in 10.0 mi SW 15.0 mph - N/A   Scattered Clouds
9:51 PM 21.0 °F 9.9 °F 7.0 °F 55% 30.07 in 10.0 mi SW 10.4 mph - N/A   Clear
10:51 PM 19.9 °F 10.1 °F 7.0 °F 57% 30.09 in 10.0 mi SW 8.1 mph - N/A   Mostly Cloudy
11:51 PM 21.9 °F 14.5 °F 9.0 °F 58% 30.09 in 10.0 mi SW 5.8 mph - N/A   Overcast